Regional Weather Roundup
Issued by NWS

Home | Current Version | Previous Version | Text Only | Print | Product List | Glossary On
Versions: 1 2 3 4 5 6 7 8 9 10 11 12 13 14 15 16 17 18 19 20 21 22 23 24 25 26 27 28 29 30 31 32 33 34 35 36 37 38 39 40 41 42 43 44 45 46 47 48 49 50
000
ASUS43 KLMK 240902
RWRKY
KENTUCKY REGIONAL WEATHER ROUNDUP
NATIONAL WEATHER SERVICE LOUISVILLE KY
400 AM EST FRI FEB 24 2017

NOTE "FAIR" INDICATES FEW OR NO CLOUDS BELOW 12,000 FEET
WITH NO SIGNIFICANT WEATHER AND/OR OBSTRUCTIONS TO VISIBILITY.

KYZ001>023-026-027-061>063-070>075-241000-
WESTERN AND SOUTH CENTRAL KENTUCKY

CITY           SKY/WX    TMP DP  RH WIND       PRES   REMARKS
PADUCAH        CLEAR     64  55  72 S8        29.62F
HENDERSON      CLOUDY    63  54  72 S8        29.63F
OWENSBORO      PTCLDY    63  56  78 S14       29.66S
HOPKINSVILLE   CLEAR     65  55  71 S12G25    29.68F
BOWLING GREEN  CLOUDY    63  55  75 S10       29.72F
GLASGOW        NOT AVBL
$$

KYZ024-025-028>034-038-045-046-053-241000-
NORTH CENTRAL KENTUCKY

CITY           SKY/WX    TMP DP  RH WIND       PRES   REMARKS
LOUISVILLE/SDF CLOUDY    64  53  67 S9        29.70S
LOUISVILLE/LOU PTCLDY    63  53  70 S7        29.71S
FORT KNOX      PTCLDY    60  54  79 S10       29.69F
$$

KYZ035>037-039>044-047>052-055>060-089>105-241000-
NORTHEAST KENTUCKY

CITY           SKY/WX    TMP DP  RH WIND       PRES   REMARKS
LEXINGTON      PTCLDY    60  51  72 S12       29.75F
COVINGTON      PTCLDY    56  52  86 S8        29.72S
FRANKFORT      PTCLDY    58  50  75 S5        29.73S
$$

KYZ054-064>069-076>088-106>120-241000-
SOUTHEAST KENTUCKY

CITY           SKY/WX    TMP DP  RH WIND       PRES   REMARKS
JACKSON        PTCLDY    59  50  72 S5        29.80F
LONDON         PTCLDY    58  48  69 S5        29.79F
SOMERSET       PTCLDY    55  50  82 S5        29.80R
MIDDLESBORO    PTCLDY    47  47 100 CALM      29.84S
MONTICELLO     MOSUNNY   58  50  75 VRB5      29.81R
$$





USA.gov is the U.S. government's official web portal to all federal, state and local government web resources and services.